This demonstration page uses our WeatherBlox Daily Observations layout. Learn more.

Left ArrowRight Arrow

Hourly Observations for August 22, 2021

Temp ( °F °C ) Dew Point ( °F °C ) Humidity (%) Winds ( mph kmh ) Pressure ( in mb ) Visibility ( mi km ) Precip ( " mm )
12:59 am 00:59 Partly Cloudy 76 24.4 73 22.8 91 91 SSW 5 7 29.92 1013 8 13 0.00 0.00
1:59 am 01:59 Partly Cloudy 76 24.4 72 22.2 88 88 SW 5 7 29.90 1013 9 14 0.00 0.00
2:59 am 02:59 Partly Cloudy 75 23.9 71 21.7 88 88 S 6 9 29.89 1012 10 16 0.00 0.00
3:59 am 03:59 Clear 75 23.9 69 20.6 82 82 SW 3 6 29.88 1012 10 16 0.00 0.00
4:59 am 04:59 Mostly Cloudy 75 23.9 69 20.6 82 82 Calm 29.88 1012 10 16 0.00 0.00
5:59 am 05:59 Mostly Cloudy 73 22.8 68 20 84 84 Calm 29.90 1012 10 16 0.00 0.00
6:59 am 06:59 Mostly Cloudy 73 22.8 69 20.6 87 87 SW 3 6 29.92 1013 8 13 0.00 0.00
7:59 am 07:59 Mostly Cloudy 79 26.1 72 22.2 79 79 Calm 29.93 1014 9 14 0.00 0.00
8:59 am 08:59 Mostly Cloudy 81 27.2 72 22.2 74 74 WSW 5 7 29.93 1014 10 16 0.00 0.00
9:59 am 09:59 Mostly Cloudy 83 28.3 72 22.2 70 70 VRB 5 7 29.93 1013 10 16 0.00 0.00
10:59 am 10:59 Mostly Cloudy 84 28.9 71 21.7 65 65 WSW 5 7 29.91 1013 10 16 0.00 0.00
11:59 am 11:59 Mostly Cloudy 88 31.1 73 22.8 61 61 NNW 3 6 29.91 1013 10 16 0.00 0.00
12:59 pm 12:59 Mostly Cloudy 88 31.1 71 21.7 57 57 VRB 6 9 29.90 1013 10 16 0.00 0.00
1:59 pm 13:59 Mostly Cloudy 89 31.7 71 21.7 55 55 Calm 29.89 1012 10 16 0.00 0.00
2:59 pm 14:59 Mostly Cloudy with Thunderstorms 86 30 71 21.7 61 61 E 9 15 29.88 1012 10 16 0.00 0.00
3:59 pm 15:59 Cloudy with Thunderstorms 77 25 71 21.7 82 82 SSW 8 13 29.90 1013 3 5 0.07 1.78
4:59 pm 16:59 Cloudy with Thunderstorms 75 23.9 71 21.7 88 88 E 9 15 29.91 1013 7 11 0.08 2.03
5:59 pm 17:59 Cloudy with Thunderstorms 72 22.2 66 18.9 82 82 S 3 6 29.91 1013 10 16 0.01 0.25
6:15 pm 18:15 Cloudy with Light Rain 71 21.7 65 18.3 81 81 SSE 8 13 29.91 1013 10 16 0.00 0.00
6:43 pm 18:43 Mostly Cloudy with Thunderstorms 71 21.7 66 18.9 84 84 SSW 6 9 29.91 1013 10 16 0.00 0.00
6:59 pm 18:59 Mostly Cloudy with Thunderstorms 72 22.2 66 18.9 82 82 WSW 8 13 29.92 1013 10 16 0.00 0.00
7:05 pm 19:05 Mostly Cloudy 73 22.8 66 18.9 79 79 WSW 10 17 29.91 1013 10 16 0.00 0.00
7:59 pm 19:59 Mostly Cloudy 71 21.7 67 19.4 87 87 E 6 9 29.88 1012 10 16 0.00 0.00
8:59 pm 20:59 Mostly Cloudy 71 21.7 67 19.4 87 87 SE 5 7 29.89 1012 10 16 0.00 0.00
9:59 pm 21:59 Cloudy 71 21.7 67 19.4 87 87 Calm 29.89 1012 10 16 0.00 0.00
10:59 pm 22:59 Cloudy 71 21.7 68 20 90 90 Calm 29.89 1012 10 16 0.00 0.00
11:59 pm 23:59 Cloudy 72 22.2 68 20 87 87 Calm 29.91 1013 10 16 0.00 0.00

Powered by AerisWeather